GW6707 Weather Reports


time (UTC)temp
C
wind
direction
speed
KPH
gust
KPH
rain 1hr
cm
rain 24hr
cm
rain mn
cm
humidity
%
barometer
mb
20260506210006 10 315 0.0 4.8 0.00 3.91 3.81 87 1013.0
20260506204525 11 320 8.0 16.1 0.00 3.94 3.81 79 1012.6
20260506203015 10 360 1.6 4.8 0.00 3.94 3.81 81 1012.2
20260506201524 10 307 0.0 1.6 0.00 3.96 3.81 89 1012.4
20260506200025 10 307 0.0 3.2 0.00 4.04 3.81 88 1012.3
20260506194509 9 311 0.0 3.2 0.00 4.11 3.81 89 1012.0
20260506193017 9 207 0.0 3.2 0.00 4.27 3.81 90 1011.8
20260506191519 10 310 0.0 3.2 0.08 4.32 3.81 89 1011.6
20260506190023 10 317 0.0 3.2 0.10 4.34 3.81 87 1011.3
20260506184526 10 320 6.4 9.7 0.10 4.42 3.81 87 1011.2
20260506183011 10 309 1.6 14.5 0.10 4.42 3.81 89 1010.3
20260506181516 10 203 0.0 3.2 0.00 4.34 3.71 88 1011.1
20260506180022 11 94 0.0 3.2 0.00 4.32 3.68 86 1011.0
20260506174524 11 5 1.6 3.2 0.00 4.37 3.68 83 1010.6
20260506173009 11 331 3.2 6.4 0.00 4.47 3.68 82 1010.2
20260506171520 11 268 0.0 8.0 0.00 4.57 3.68 83 1010.0
20260506170019 11 231 0.0 4.8 0.00 4.60 3.66 79 1009.8
20260506164529 12 293 1.6 8.0 0.00 4.60 3.66 75 1009.5
20260506163028 12 331 4.8 12.9 0.00 4.62 3.66 75 1009.5
20260506161510 12 211 1.6 9.7 0.00 4.62 3.66 72 1009.2
20260506160018 12 272 1.6 11.3 0.00 4.65 3.66 77 1008.9
20260506154530 11 329 1.6 16.1 0.00 4.65 3.66 81 1009.3
20260506153036 11 340 1.6 6.4 0.00 4.67 3.66 83 1009.7
20260506151531 11 316 1.6 6.4 0.00 4.67 3.66 82 1009.8
20260506150014 12 219 3.2 6.4 0.00 4.67 3.66 80 1009.7
20260506144548 12 287 3.2 12.9 0.00 4.70 3.66 82 1009.6
20260506143023 13 271 3.2 9.7 0.00 4.70 3.66 84 1009.5
20260506141529 13 328 4.8 11.3 0.00 4.70 3.66 87 1009.8
20260506140040 12 206 1.6 3.2 0.00 4.70 3.66 91 1009.7
20260506134517 12 228 1.6 3.2 0.05 4.70 3.66 92 1009.8
20260506133020 11 316 0.0 3.2 1.07 4.70 3.66 94 1010.0
20260506131506 11 196 1.6 3.2 1.78 4.72 3.66 95 1010.1
20260506130005 10 113 0.0 3.2 1.78 4.75 3.66 93 1009.9
20260506124504 8 314 4.8 17.7 1.73 4.70 3.61 90 1009.9
20260506123004 10 5 6.4 32.2 0.71 3.68 2.59 89 1009.8
20260506121503 10 297 8.0 35.4 0.00 2.97 1.88 89 1009.3
20260506120005 11 121 3.2 17.7 0.08 2.97 1.88 95 1009.7
20260506114512 11 117 1.6 11.3 0.13 2.97 1.88 95 1009.7
20260506113004 11 113 1.6 9.7 0.13 2.97 1.88 95 1009.8
20260506111503 11 154 3.2 14.5 0.13 2.97 1.85 95 1009.7
20260506110003 11 136 4.8 16.1 0.08 2.92 1.78 95 1009.6
20260506104507 10 138 8.0 16.1 0.00 2.87 1.73 95 1009.6
20260506103004 10 174 9.7 24.1 0.00 2.87 1.73 95 1009.8
20260506101504 10 148 6.4 16.1 0.00 2.84 1.70 95 1009.9
20260506100015 10 154 4.8 20.9 0.00 2.87 1.70 95 1009.7
20260506094508 10 242 4.8 12.9 0.00 2.90 1.70 96 1009.8
20260506093006 10 225 6.4 16.1 0.03 2.92 1.70 96 1009.7
20260506091504 10 242 3.2 16.1 0.03 2.97 1.70 96 1009.6
20260506090007 10 251 9.7 24.1 0.03 3.00 1.70 96 1009.6
20260506084507 10 163 8.0 20.9 0.00 3.05 1.68 96 1009.7
20260506083008 10 146 4.8 16.1 0.00 3.02 1.68 96 1009.7
20260506081513 10 145 6.4 19.3 0.00 3.05 1.68 96 1009.8
20260506073009 10 215 8.0 17.7 0.00 3.10 1.68 96 1009.7
20260506071510 10 192 3.2 17.7 0.00 3.12 1.65 96 1009.8
20260506061510 10 118 8.0 16.1 0.00 3.56 1.63 96 1009.9
20260506044515 10 141 4.8 14.5 0.30 3.66 1.60 96 1010.6
20260506043016 10 116 3.2 11.3 0.41 3.66 1.57 96 1010.7
20260506041516 10 139 4.8 11.3 0.58 3.58 1.50 95 1010.8
20260506040017 10 136 1.6 8.0 0.76 3.48 1.37 95 1010.9
20260506034515 10 136 3.2 9.7 0.69 3.40 1.30 95 1010.9
20260506033026 10 313 0.0 4.8 0.56 3.28 1.14 95 1011.0
20260506031529 10 186 0.0 3.2 0.28 3.00 0.89 95 1011.1
20260506030018 10 232 0.0 3.2 0.00 2.72 0.58 95 1011.4
20260506024524 10 209 0.0 3.2 0.00 2.72 0.58 95 1011.7
20260506023018 10 308 1.6 4.8 0.00 2.72 0.58 95 1011.8
20260506021521 10 210 0.0 3.2 0.00 2.72 0.58 95 1012.0
20260506020018 10 198 0.0 3.2 0.00 2.69 0.56 95 1012.1
20260506014522 10 198 0.0 3.2 0.00 2.69 0.56 95 1012.1
20260506013022 10 196 0.0 3.2 0.00 2.69 0.56 95 1012.1
20260506011520 10 196 0.0 1.6 0.00 2.69 0.56 95 1012.3
20260506010046 10 196 0.0 3.2 0.00 2.67 0.56 95 1012.5
20260506004522 10 196 0.0 3.2 0.00 2.67 0.56 95 1012.7
20260506003023 10 172 0.0 3.2 0.00 2.67 0.56 95 1012.9
20260506001522 10 184 0.0 3.2 0.00 2.67 0.56 95 1013.0
20260506000022 10 179 0.0 3.2 0.08 2.67 0.56 95 1013.0
20260505234522 10 134 1.6 3.2 0.08 2.64 0.53 95 1013.3
20260505233025 10 134 0.0 3.2 0.18 2.64 0.53 95 1013.4
20260505231517 10 124 0.0 4.8 0.46 2.64 0.53 95 1013.5
20260505230031 10 136 1.6 3.2 0.46 2.59 0.46 95 1013.6
20260505224526 10 136 0.0 3.2 0.46 2.54 0.43 95 1013.7
20260505223028 10 135 0.0 3.2 0.36 2.44 0.33 95 1013.7
20260505221524 10 206 0.0 3.2 0.15 2.16 0.05 95 1013.7
20260505220024 10 148 0.0 3.2 0.08 2.11 0.00 95 1013.8
20260505214522 10 137 0.0 3.2 0.08 2.06 2.06 95 1014.0
20260505213028 10 118 0.0 3.2 0.08 2.06 2.06 95 1014.2
20260505211526 10 117 0.0 3.2 0.05 2.01 2.01 94 1014.3